HR1LRC-21 Weather Reports


time (UTC)temp
C
wind
direction
speed
KPH
gust
KPH
rain 1hr
cm
rain 24hr
cm
rain mn
cm
humidity
%
barometer
mb
20260504081824 20 3 6.4 8.0 0.00 0.00 0.00 59 1014.0
20260504080823 20 3 6.4 8.0 0.00 0.00 0.00 59 1014.0
20260504045812 20 3 6.4 8.0 0.00 0.00 0.00 59 1016.0
20260504044811 20 3 6.4 8.0 0.00 0.00 0.00 59 1016.0
20260504043811 23 186 6.4 8.0 0.00 0.00 0.00 44 1016.0
20260504042810 23 186 6.4 8.0 0.00 0.00 0.00 44 1016.0
20260504041810 23 186 6.4 8.0 0.00 0.00 0.00 44 1016.0
20260504040809 23 186 6.4 8.0 0.00 0.00 0.00 44 1015.0
20260504035808 23 186 6.4 8.0 0.00 0.00 0.00 44 1015.0
20260504034808 23 186 6.4 8.0 0.00 0.00 0.00 44 1015.0
20260504033807 23 186 6.4 8.0 0.00 0.00 0.00 44 1016.0
20260504032807 23 186 6.4 8.0 0.00 0.00 0.00 44 1016.0
20260504031806 23 186 6.4 8.0 0.00 0.00 0.00 44 1016.0
20260504030806 23 186 6.4 8.0 0.00 0.00 0.00 44 1015.0
20260504025805 23 186 6.4 8.0 0.00 0.00 0.00 44 1015.0
20260504024804 23 186 6.4 8.0 0.00 0.00 0.00 44 1015.0
20260504023804 23 186 6.4 8.0 0.00 0.00 0.00 44 1015.0
20260504022803 23 186 6.4 8.0 0.00 0.00 0.00 44 1015.0
20260504021803 23 186 6.4 8.0 0.00 0.00 0.00 44 1015.0
20260504020802 23 186 6.4 8.0 0.00 0.00 0.00 44 1014.0
20260504015802 23 186 6.4 8.0 0.00 0.00 0.00 44 1014.0
20260504014801 23 186 6.4 8.0 0.00 0.00 0.00 44 1014.0
20260504013800 23 186 6.4 8.0 0.00 0.00 0.00 44 1013.0
20260504012800 23 186 6.4 8.0 0.00 0.00 0.00 44 1012.0
20260504011759 23 186 6.4 8.0 0.00 0.00 0.00 44 1012.0
20260504010759 23 186 6.4 8.0 0.00 0.00 0.00 44 1012.0
20260504005758 23 186 6.4 8.0 0.00 0.00 0.00 44 1012.0
20260504004757 23 186 6.4 8.0 0.00 0.00 0.00 44 1012.0
20260504003757 23 186 6.4 8.0 0.00 0.00 0.00 44 1011.0
20260504002756 23 186 6.4 8.0 0.00 0.00 0.00 44 1011.0
20260504001756 23 186 6.4 8.0 0.00 0.00 0.00 44 1011.0
20260504000755 23 186 6.4 8.0 0.00 0.00 0.00 44 1010.0
20260503235755 23 186 6.4 9.7 0.00 0.00 0.00 44 1010.0
20260503234754 23 186 6.4 9.7 0.00 0.00 0.00 44 1010.0
20260503233754 27 59 4.8 12.9 0.00 0.00 0.00 28 1010.0
20260503232753 27 59 4.8 12.9 0.00 0.00 0.00 28 1008.0
20260503231752 27 59 4.8 12.9 0.00 0.00 0.00 28 1008.0
20260503230752 27 59 4.8 12.9 0.00 0.00 0.00 28 1008.0
20260503225751 27 59 4.8 12.9 0.03 0.00 0.00 28 1008.0
20260503224751 27 59 4.8 12.9 0.05 0.00 0.00 28 1008.0
20260503223750 27 59 4.8 12.9 0.05 0.00 0.00 28 1008.0
20260503222750 27 59 4.8 12.9 0.05 0.00 0.00 28 1008.0
20260503221749 27 59 4.8 12.9 0.05 0.00 0.00 28 1008.0
20260503220748 27 59 4.8 12.9 0.03 0.00 0.00 28 1008.0
20260503215748 27 59 4.8 12.9 0.00 0.00 0.00 28 1008.0
20260503214747 27 59 4.8 12.9 0.00 0.00 0.00 28 1008.0
20260503213747 27 59 4.8 12.9 0.00 0.00 0.00 28 1008.0
20260503212746 27 41 12.9 14.5 0.00 0.00 0.00 28 1008.0
20260503211746 27 41 12.9 14.5 0.00 0.00 0.00 28 1008.0
20260503210745 27 41 12.9 14.5 0.00 0.00 0.00 28 1008.0
20260503205744 27 41 12.9 14.5 0.00 0.00 0.00 27 1008.0
20260503204744 27 41 12.9 14.5 0.00 0.00 0.00 28 1008.0
20260503203743 27 41 12.9 14.5 0.00 0.00 0.00 28 1008.0
20260503202743 27 55 9.7 14.5 0.00 0.00 0.00 30 1009.0
20260503201742 27 55 9.7 14.5 0.00 0.00 0.00 30 1009.0
20260503200741 27 55 9.7 14.5 0.00 0.00 0.00 29 1009.0
20260503195741 27 55 9.7 14.5 0.00 0.00 0.00 28 1009.0
20260503194740 27 55 9.7 14.5 0.00 0.00 0.00 28 1009.0
20260503193740 27 55 9.7 14.5 0.00 0.00 0.00 29 1009.0
20260503192739 27 69 6.4 14.5 0.00 0.00 0.00 33 1010.0
20260503191739 27 69 6.4 14.5 0.00 0.00 0.00 33 1010.0
20260503190738 27 69 6.4 14.5 0.00 0.00 0.00 33 1010.0
20260503185737 27 69 6.4 14.5 0.00 0.00 0.00 33 1010.0
20260503184737 27 69 6.4 14.5 0.00 0.00 0.00 35 1011.0
20260503183736 27 69 6.4 14.5 0.00 0.00 0.00 35 1011.0
20260503182735 26 60 4.8 16.1 0.00 0.00 0.00 38 1012.0
20260503181736 26 60 4.8 16.1 0.00 0.00 0.00 38 1012.0
20260503180734 26 60 4.8 16.1 0.00 0.00 0.00 38 1012.0
20260503175734 26 60 4.8 16.1 0.00 0.00 0.00 38 1012.0
20260503174733 26 60 4.8 16.1 0.00 0.00 0.00 38 1012.0
20260503173732 25 60 4.8 16.1 0.00 0.00 0.00 41 1013.0
20260503172732 24 65 6.4 14.5 0.00 0.00 0.00 47 1014.0
20260503171731 24 65 6.4 14.5 0.00 0.00 0.00 47 1014.0
20260503170731 24 65 6.4 14.5 0.00 0.00 0.00 48 1014.0
20260503150724 21 73 4.8 8.0 0.00 0.00 0.00 65 1015.0